This is the latest recevied weather packets stored in our database for station/object NI4CE-10. If no packets are shown the sender has not sent any weather packets the latest 1 day(s).
| Time | Temp. | Humidity | Pressure | Rain* | Wind** | Luminosity | Snow |
|---|---|---|---|---|---|---|---|
| 1778021375 | 28.33° C | 100% | 1016.6 hPa | 0 mm | 1.34 m/s, 264° | - | - |
| 1778021146 | 28.33° C | 100% | 1016.6 hPa | 0 mm | 1.34 m/s, 264° | - | - |
| 1778020846 | 28.33° C | 100% | 1016.5 hPa | 0 mm | 1.79 m/s, 257° | - | - |
| 1778020818 | 28.89° C | 100% | 1016.5 hPa | 0 mm | 0.89 m/s, 286° | - | - |
| 1778020546 | 28.89° C | 100% | 1016.5 hPa | 0 mm | 0.89 m/s, 286° | - | - |
| 1778020246 | 28.89° C | 100% | 1016.5 hPa | 0 mm | 2.24 m/s, 312° | - | - |
| 1778020094 | 28.33° C | 100% | 1016.4 hPa | 0 mm | 3.13 m/s, 293° | - | - |
| 1778019946 | 28.33° C | 100% | 1016.4 hPa | 0 mm | 3.13 m/s, 293° | - | - |
| 1778019920 | 28.89° C | 100% | 1016.3 hPa | 0 mm | 2.68 m/s, 278° | - | - |
| 1778019646 | 28.89° C | 100% | 1016.3 hPa | 0 mm | 2.68 m/s, 278° | - | - |
| 1778019490 | 28.89° C | 100% | 1016.3 hPa | 0 mm | 1.34 m/s, 323° | - | - |
| 1778019346 | 28.89° C | 100% | 1016.3 hPa | 0 mm | 1.34 m/s, 323° | - | - |
| 1778019181 | 28.89° C | 100% | 1016.4 hPa | 0 mm | 1.79 m/s, 284° | - | - |
| 1778019046 | 28.89° C | 100% | 1016.4 hPa | 0 mm | 1.79 m/s, 284° | - | - |
| 1778018746 | 29.44° C | 100% | 1016.4 hPa | 0 mm | 4.02 m/s, 278° | - | - |
| 1778018446 | 29.44° C | 100% | 1016.3 hPa | 0 mm | 3.13 m/s, 289° | - | - |
| 1778018292 | 30° C | 100% | 1016.3 hPa | 0 mm | 2.68 m/s, 267° | - | - |
| 1778018146 | 30° C | 100% | 1016.3 hPa | 0 mm | 2.68 m/s, 267° | - | - |
| 1778017846 | 30° C | 100% | 1016.3 hPa | 0 mm | 2.68 m/s, 300° | - | - |
| 1778017664 | 30.56° C | 100% | 1016.1 hPa | 0 mm | 0.89 m/s, 23° | - | - |
| 1778017546 | 30.56° C | 100% | 1016.2 hPa | 0 mm | 1.34 m/s, 282° | - | - |
| 1778017246 | 30.56° C | 100% | 1016.2 hPa | 0 mm | 2.68 m/s, 264° | - | - |
| 1778017002 | 31.11° C | 100% | 1016.1 hPa | 0 mm | 2.68 m/s, 309° | - | - |
| 1778016946 | 31.11° C | 100% | 1016.1 hPa | 0 mm | 2.68 m/s, 309° | - | - |
| 1778016646 | 30.56° C | 100% | 1016.1 hPa | 0 mm | 0.89 m/s, 23° | - | - |
* Rain latest hour (hover to see other rain measurements)
** Current wind speed in m/s (hover to see current wind gust speed)